SL-16 DEB, 22327

Orbit data source: Space-Track

SL-16 DEB, 22327 is space debris in LEO originally from a launch on Fri, 25 Dec 1992 UTC launched from the Tyuratam Missile And Space Complex (TTMTR). Debris objects in space refer to the collection of defunct objects orbiting the Earth. Examples of debris include non-operational satellites, rocket bodies, and fragments generated from explosions, collisions, or faulty payload assembly.

Loading next visibility...
Identifier
22327, 1992-093Q
Orbit
LEO
Country
Flag of CISCIS
Related business
Manufacturer
Unknown
Mission
Spacecraft
Bus & Motor
Unknown
Mass
Unknown
Launch date (UTC)
1992-12-25 (33 years ago)
Launch vehicle
Unknown
Launch site
Tyuratam Missile And Space Complex (TTMTR)
Object type
Payload
Rocket body
Debris
Shape & HBR
Unknown shape, 0.5 m
Radar Cross Section
Medium (>0.1 m² and <1 m²)

Expand to show TLE details & history
Last TLE update: 8 hours ago

TLE from 8 hours ago
0 SL-16 DEB
1 22327U 92093Q   25298.09867854  .00012644  00000-0  10635-2 0  9996
2 22327  71.1145 190.5824 0059735   8.6580 101.0681 14.96983314728093
Epoch: 2025-10-25T02:22Z
TLE epoch observation values (Epoch: 2025-10-25T02:22:05.825Z)
Latitude
62.58915°
Longitude
-99.67663°
Altitude
594.646 km
Speed
7.564 km/s
True Right ascension
21h 58m 19s
True Declination
62° 26' 42"
Sunlit
Object was in full shadow at epoch
Visualization orbit readout
Latitude
Unknown
Longitude
Unknown
Altitude
Unknown
Speed
Unknown
Apparent Right ascension
Unknown
Apparent Declination
Unknown
Sunlit
N/A
Visualization observer readout
Local Sidereal Time
06:03:35
Azimuth
Unknown
Elevation
Unknown
Doppler factor
Unknown
Orbital elements
Apogee altitude
615.586 km
Perigee altitude
532.528 km
Semi-major axis
6,952.194 km
Eccentricity
0.00597
Inclination
71.1145°
RAAN
190.5824°
Arg. of periapsis
8.658°
True anomaly
101.7389°
Mean anomaly
101.0681°
Eccentric anomaly
101.4036°
Mean motion
3.74421 °/min
Orbital period
96.15 mins
BSTAR
0.0010635
Loading maneuver chart data...
Computing Atmospheric mass density...
Loading historical data...
Loading historical data...
Loading historical data...
Loading historical data...
Loading historical data...
Loading historical data...
Loading historical data...

Documentation

Showing up to 5 results
|